Etusivu
METAR-TAF:

METAR-TAF

Lentoasemat :

Seinäjoen lentoasema

Seinäjoki-Ilmajoki, Suomi

Leveyspiiri: 62-41-37N, Pituuspiiri: 022-49-55E, korkeus merenpinnasta: 91 m

Tämänhetkinen sää

Tämä raportti tehtiin 31 minuuttia sitten, kello 15.20 UTC
Tuuli 8 kn etelästä, vaihdellen kaakon ja lounaan välillä
Lämpötila 21°C
Kosteus 53%
Ilmanpaine 1015 hPa
Näkyvyys 10 km tai enemmän
ei pilviä alle 1500 m:ssä eikä cumulonimbus-pilviä

METAR: EFSI 161520Z AUTO 19008KT 140V230 CAVOK 21/11 Q1015

Aika: 18:51 (15:51 UTC)


TAF: puuttuu

Säähavainnot ja -ennusteet yli 4000 lentoasemalta (METAR- ja TAF-raportit).

Käytössä olevat sääasemat on merkitty karttaan keltaisilla ja punaisilla pisteillä.

Aseta hiiri pisteen päälle nähdäksesi sääaseman nimen.

Klikkaa sitten nähdäksesi säähavainnot ja -ennusteet.

Kartan vaihtaminen: klikkaa mustalla rastilla varustettuja vihreitä pisteitä, niin voit zoomata sisään; viivalla varustettua vihreää pistettä, niin voit zoomata ulos tai vihreitä nuolia, niin pääset viereisille kartoille.


METAR-TAF: